GW4382 Weather Reports


time (UTC)temp
F
wind
direction
speed
knots
gust
knots
rain 1hr
in
rain 24hr
in
rain mn
in
humidity
%
barometer
mb
20260506114556 57 355 3.5 13.9 0.00 0.00 0.00 61 1012.8
20260506113104 57 22 5.2 13.0 0.00 0.00 0.00 61 1012.8
20260506111557 57 348 6.1 13.0 0.00 0.00 0.00 61 1012.7
20260506110103 56 339 5.2 13.9 0.00 0.00 0.00 63 1012.8
20260506104616 56 5 5.2 13.0 0.00 0.00 0.00 64 1012.7
20260506103057 56 313 7.0 13.0 0.00 0.00 0.00 65 1012.8
20260506101603 55 328 6.1 14.8 0.00 0.00 0.00 68 1012.6
20260506100055 54 10 6.1 13.9 0.00 0.00 0.00 68 1012.7
20260506094559 54 30 6.1 14.8 0.00 0.00 0.00 69 1012.8
20260506093104 52 347 7.0 13.0 0.00 0.00 0.00 72 1012.7
20260506091554 52 315 6.1 14.8 0.00 0.00 0.00 72 1012.8
20260506084557 54 322 4.3 11.3 0.00 0.00 0.00 72 1012.5
20260506083056 53 313 5.2 13.9 0.00 0.00 0.00 72 1012.4
20260506081556 52 355 3.5 11.3 0.00 0.00 0.00 74 1012.3
20260506073104 49 10 3.5 11.3 0.00 0.00 0.00 79 1012.4
20260506071610 48 244 4.3 11.3 0.00 0.00 0.00 80 1012.3
20260506070103 48 355 3.5 8.7 0.00 0.00 0.00 82 1012.2
20260506061557 45 360 2.6 10.4 0.00 0.00 0.00 85 1012.3
20260506044602 45 308 5.2 12.2 0.00 0.00 0.00 86 1011.9
20260506043057 45 339 3.5 11.3 0.00 0.00 0.00 86 1011.8
20260506041607 46 19 4.3 10.4 0.00 0.00 0.00 86 1011.7
20260506040057 46 5 4.3 13.0 0.00 0.00 0.00 86 1011.5
20260506034556 46 13 4.3 12.2 0.00 0.00 0.00 85 1011.6
20260506033100 46 349 5.2 12.2 0.00 0.00 0.00 85 1011.7
20260506031606 47 360 6.1 13.9 0.00 0.00 0.00 85 1011.8
20260506030056 47 5 4.3 11.3 0.00 0.00 0.00 84 1011.8
20260506024559 47 348 5.2 10.4 0.00 0.00 0.00 84 1011.8
20260506023057 48 360 5.2 12.2 0.00 0.00 0.00 83 1011.8
20260506021558 48 315 5.2 13.0 0.00 0.00 0.00 83 1011.9
20260506020057 48 18 4.3 12.2 0.00 0.00 0.00 83 1012.0
20260506014600 48 360 5.2 10.4 0.00 0.00 0.00 83 1012.0
20260506013057 48 11 6.1 13.0 0.00 0.00 0.00 83 1011.9
20260506011605 49 360 7.0 13.9 0.00 0.00 0.00 83 1012.1
20260506010110 49 33 5.2 12.2 0.00 0.00 0.00 84 1012.1
20260506004607 49 50 5.2 13.0 0.00 0.00 0.00 84 1012.3
20260506003059 49 34 6.1 14.8 0.00 0.00 0.00 83 1012.3
20260506001620 49 355 7.8 14.8 0.00 0.00 0.00 83 1012.3
20260506000110 49 355 6.1 15.6 0.00 0.00 0.00 83 1012.4
20260505234601 49 333 5.2 13.0 0.00 0.00 0.00 83 1012.5
20260505233059 49 78 5.2 11.3 0.00 0.00 0.00 82 1012.5
20260505231556 49 27 7.0 13.9 0.00 0.00 0.00 82 1012.6
20260505230117 49 70 6.1 13.0 0.00 0.00 0.00 81 1012.6
20260505224557 49 24 5.2 11.3 0.00 0.00 0.00 81 1012.4
20260505223100 49 43 5.2 11.3 0.00 0.00 0.00 81 1012.5
20260505221559 50 355 4.3 9.6 0.00 0.00 0.00 80 1012.7
20260505220056 50 5 5.2 11.3 0.00 0.00 0.00 80 1012.8
20260505214606 50 27 4.3 10.4 0.00 0.00 0.00 79 1012.8
20260505213100 50 12 3.5 9.6 0.00 0.00 0.00 79 1012.8
20260505211607 50 37 4.3 9.6 0.00 0.00 0.00 78 1012.8
20260505210106 50 40 3.5 7.8 0.00 0.00 0.00 77 1012.9
20260505204554 50 22 2.6 7.8 0.00 0.00 0.00 76 1012.9
20260505203054 50 57 3.5 10.4 0.00 0.00 0.00 75 1012.8
20260505201605 50 13 3.5 7.8 0.00 0.00 0.00 75 1012.6
20260505200058 51 355 1.7 7.0 0.00 0.00 0.00 74 1012.5
20260505194603 51 23 1.7 6.1 0.00 0.00 0.00 73 1012.1
20260505193104 52 45 3.5 7.8 0.00 0.00 0.00 72 1011.9
20260505191604 52 351 3.5 7.8 0.00 0.00 0.00 71 1012.0
20260505190119 53 355 2.6 7.8 0.00 0.00 0.00 71 1011.9
20260505184611 54 76 1.7 7.8 0.00 0.00 0.00 71 1011.8
20260505183102 55 17 1.7 4.3 0.00 0.00 0.00 71 1011.7
20260505181603 55 13 1.7 7.0 0.00 0.00 0.00 69 1011.7
20260505174556 56 19 2.6 7.0 0.00 0.00 0.00 67 1011.8
20260505173056 57 39 0.9 7.8 0.00 0.00 0.00 65 1011.7
20260505171558 58 32 3.5 8.7 0.00 0.00 0.00 62 1011.7
20260505170109 59 55 5.2 10.4 0.00 0.00 0.00 60 1011.7
20260505164555 60 30 5.2 11.3 0.00 0.00 0.00 59 1011.8
20260505163059 61 5 5.2 11.3 0.00 0.00 0.00 57 1011.9
20260505161555 61 19 7.0 16.5 0.00 0.00 0.00 57 1011.9
20260505153107 64 348 4.3 13.9 0.00 0.00 0.00 57 1011.8
20260505151557 63 360 5.2 12.2 0.00 0.00 0.00 57 1011.9
20260505150114 63 76 6.1 13.9 0.00 0.00 0.00 59 1012.0
20260505140117 61 360 6.1 11.3 0.00 0.00 0.00 61 1012.1
20260505130110 62 360 3.5 11.3 0.00 0.00 0.00 65 1012.4
20260505124617 62 38 4.3 10.4 0.00 0.00 0.00 65 1012.4
20260505123118 62 355 2.6 9.6 0.00 0.00 0.00 67 1012.4
20260505121556 61 35 5.2 11.3 0.00 0.00 0.00 65 1012.4
20260505120059 61 5 6.1 13.0 0.00 0.00 0.00 66 1012.5